FW9075 Weather Reports


time (UTC)temp
C
wind
direction
speed
KPH
gust
KPH
rain 1hr
cm
rain 24hr
cm
rain mn
cm
humidity
%
barometer
mb
20260507135506 13 85 3.2 12.9 0.00 0.00 0.00 79 1014.6
20260507135006 13 89 6.4 14.5 0.00 0.00 0.00 80 1014.6
20260507134505 13 84 6.4 14.5 0.00 0.00 0.00 80 1014.7
20260507134006 12 79 3.2 11.3 0.00 0.00 0.00 81 1014.6
20260507133506 12 83 6.4 12.9 0.00 0.00 0.00 81 1014.6
20260507133006 12 74 6.4 12.9 0.00 0.00 0.00 80 1014.6
20260507132506 12 71 8.0 16.1 0.00 0.00 0.00 81 1014.6
20260507132006 12 79 9.7 17.7 0.00 0.00 0.00 81 1014.7
20260507131006 13 79 9.7 17.7 0.00 0.00 0.00 79 1014.8
20260507130006 13 83 8.0 16.1 0.00 0.00 0.00 76 1014.8
20260507125505 13 97 6.4 16.1 0.00 0.00 0.00 74 1014.7
20260507125006 14 105 3.2 16.1 0.00 0.00 0.00 71 1014.7
20260507124506 15 123 6.4 9.7 0.00 0.00 0.00 66 1014.7
20260507124006 15 134 6.4 12.9 0.00 0.00 0.00 61 1014.7
20260507123506 15 133 3.2 12.9 0.00 0.00 0.00 61 1014.7
20260507123006 15 144 1.6 11.3 0.00 0.00 0.00 63 1014.7
20260507122505 14 157 3.2 9.7 0.00 0.00 0.00 65 1014.7
20260507122006 14 158 6.4 11.3 0.00 0.00 0.00 64 1014.8
20260507121506 14 166 6.4 12.9 0.00 0.00 0.00 64 1014.7
20260507120006 15 171 8.0 16.1 0.00 0.00 0.00 62 1014.7
20260507115506 15 173 8.0 17.7 0.00 0.00 0.00 61 1014.7
20260507115005 15 167 6.4 17.7 0.00 0.00 0.00 57 1014.7
20260507114506 15 165 3.2 14.5 0.00 0.00 0.00 55 1014.7
20260507114006 15 173 3.2 11.3 0.00 0.00 0.00 54 1014.7
20260507113506 15 172 3.2 11.3 0.00 0.00 0.00 56 1014.7
20260507113006 15 175 3.2 11.3 0.00 0.00 0.00 52 1014.7
20260507112506 15 202 3.2 11.3 0.00 0.00 0.00 53 1014.7
20260507111506 16 192 6.4 12.9 0.00 0.00 0.00 53 1014.7
20260507111006 16 184 8.0 12.9 0.00 0.00 0.00 55 1014.7
20260507110006 16 161 6.4 16.1 0.00 0.00 0.00 53 1014.7
20260507105506 16 164 8.0 17.7 0.00 0.00 0.00 53 1014.8
20260507105006 17 173 8.0 17.7 0.00 0.00 0.00 54 1014.8
20260507104506 16 155 6.4 12.9 0.00 0.00 0.00 57 1014.7
20260507104005 16 163 3.2 9.7 0.00 0.00 0.00 59 1014.8
20260507103505 15 192 6.4 11.3 0.00 0.00 0.00 61 1014.8
20260507103006 15 208 6.4 11.3 0.00 0.00 0.00 60 1014.8
20260507102007 15 204 6.4 11.3 0.00 0.00 0.00 63 1014.9
20260507101507 15 211 3.2 11.3 0.00 0.00 0.00 63 1014.9
20260507101006 15 206 3.2 11.3 0.00 0.00 0.00 64 1014.9
20260507100506 15 194 3.2 11.3 0.00 0.00 0.00 61 1014.9
20260507100006 15 209 3.2 11.3 0.00 0.00 0.00 58 1014.9
20260507095506 15 225 3.2 9.7 0.00 0.00 0.00 60 1014.8
20260507095006 15 222 6.4 12.9 0.00 0.00 0.00 62 1014.9
20260507094506 15 203 6.4 12.9 0.00 0.00 0.00 60 1014.9
20260507094006 16 177 6.4 12.9 0.00 0.00 0.00 59 1014.9
20260507093006 15 171 6.4 11.3 0.00 0.00 0.00 59 1014.9
20260507092506 15 163 6.4 14.5 0.00 0.00 0.00 57 1014.9
20260507092006 15 144 6.4 14.5 0.00 0.00 0.00 60 1014.9
20260507091007 15 152 3.2 11.3 0.00 0.00 0.00 65 1014.9
20260507090506 15 140 3.2 12.9 0.00 0.00 0.00 64 1014.9
20260507090006 15 193 3.2 12.9 0.00 0.00 0.00 66 1014.9
20260507085505 15 223 3.2 11.3 0.00 0.00 0.00 69 1015.0
20260507085006 14 199 3.2 11.3 0.00 0.00 0.00 69 1015.0
20260507084506 14 191 6.4 12.9 0.00 0.00 0.00 69 1015.1
20260507084006 14 165 6.4 12.9 0.00 0.00 0.00 69 1015.1
20260507083505 14 141 6.4 11.3 0.00 0.00 0.00 72 1015.0
20260507083006 14 153 6.4 11.3 0.00 0.00 0.00 71 1015.0
20260507082505 14 179 3.2 9.7 0.00 0.00 0.00 72 1015.0
20260507082006 13 175 6.4 12.9 0.00 0.00 0.00 74 1015.0
20260507081505 13 164 3.2 12.9 0.00 0.00 0.00 73 1015.1
20260507081006 13 131 1.6 8.0 0.00 0.00 0.00 75 1015.0
20260507080505 12 105 1.6 4.8 0.00 0.00 0.00 77 1015.1
20260507075505 12 72 1.6 4.8 0.00 0.00 0.00 80 1015.1
20260507075006 11 88 1.6 4.8 0.00 0.00 0.00 81 1015.1
20260507074505 11 102 1.6 4.8 0.00 0.00 0.00 81 1015.1
20260507074005 10 0 0.0 3.2 0.00 0.00 0.00 82 1015.1
20260507073506 10 0 0.0 3.2 0.00 0.00 0.00 82 1015.1
20260507073006 10 67 1.6 4.8 0.00 0.00 0.00 83 1015.1
20260507072505 10 97 1.6 4.8 0.00 0.00 0.00 84 1015.1
20260507072006 10 0 0.0 4.8 0.00 0.00 0.00 85 1015.0
20260507071505 9 0 0.0 4.8 0.00 0.00 0.00 86 1015.0
20260507070506 8 0 0.0 3.2 0.00 0.00 0.00 87 1015.0
20260507070010 8 58 1.6 4.8 0.00 0.00 0.00 88 1015.0
20260507065506 8 32 1.6 8.0 0.00 0.00 0.00 88 1015.0
20260507064506 8 290 1.6 4.8 0.00 0.00 0.00 90 1014.9
20260507064006 8 283 1.6 4.8 0.00 0.00 0.00 90 1014.9
20260507063006 7 251 1.6 4.8 0.00 0.00 0.00 91 1014.9
20260507062506 7 255 1.6 8.0 0.00 0.00 0.00 91 1014.8
20260507062008 7 257 3.2 8.0 0.00 0.00 0.00 92 1014.9
20260507061006 7 339 3.2 11.3 0.00 0.00 0.00 93 1014.8
20260507060006 6 63 6.4 14.5 0.00 0.00 0.00 93 1014.4
20260507055506 6 60 3.2 12.9 0.00 0.00 0.00 93 1014.4
20260507054506 6 48 3.2 9.7 0.00 0.00 0.00 94 1014.5
20260507054006 6 42 1.6 9.7 0.00 0.00 0.00 94 1014.5
20260507053506 6 32 1.6 4.8 0.00 0.00 0.00 94 1014.4
20260507053006 6 33 1.6 4.8 0.00 0.00 0.00 94 1014.5
20260507052505 6 33 1.6 4.8 0.00 0.00 0.00 94 1014.5
20260507052006 6 31 1.6 3.2 0.00 0.00 0.00 94 1014.4
20260507051006 5 18 1.6 4.8 0.00 0.00 0.00 94 1014.4
20260507050506 5 0 0.0 3.2 0.00 0.00 0.00 94 1014.4
20260507045506 5 0 0.0 3.2 0.00 0.00 0.00 94 1014.4
20260507045006 5 0 0.0 3.2 0.00 0.00 0.00 94 1014.4
20260507044505 5 0 0.0 3.2 0.00 0.00 0.00 94 1014.4
20260507044005 5 0 0.0 3.2 0.00 0.00 0.00 94 1014.4
20260507043506 5 0 0.0 1.6 0.00 0.00 0.00 94 1014.4
20260507043006 5 0 0.0 1.6 0.00 0.00 0.00 94 1014.4
20260507042506 5 0 0.0 1.6 0.00 0.00 0.00 94 1014.4
20260507042006 5 0 0.0 3.2 0.00 0.00 0.00 94 1014.4
20260507041006 4 0 0.0 1.6 0.00 0.00 0.00 94 1014.4
20260507040506 4 0 0.0 1.6 0.00 0.00 0.00 94 1014.4
20260507040006 4 0 0.0 1.6 0.00 0.00 0.00 94 1014.4
20260507035506 4 0 0.0 1.6 0.00 0.00 0.00 94 1014.4
20260507035006 4 0 0.0 1.6 0.00 0.00 0.00 94 1014.4
20260507034506 3 0 0.0 1.6 0.00 0.00 0.00 94 1014.4
20260507034005 3 0 0.0 0.0 0.00 0.00 0.00 94 1014.4
20260507033506 3 0 0.0 0.0 0.00 0.00 0.00 94 1014.4
20260507033006 3 0 0.0 3.2 0.00 0.00 0.00 94 1014.3
20260507032506 3 0 0.0 3.2 0.00 0.00 0.00 94 1014.4
20260507032005 3 0 0.0 3.2 0.00 0.00 0.00 94 1014.4
20260507031505 3 0 0.0 3.2 0.00 0.00 0.00 93 1014.3
20260507030506 3 0 0.0 0.0 0.00 0.00 0.00 93 1014.3
20260507030006 3 0 0.0 0.0 0.00 0.00 0.00 93 1014.3
20260507025506 3 0 0.0 1.6 0.00 0.00 0.00 93 1014.3
20260507025006 3 0 0.0 1.6 0.00 0.00 0.00 92 1014.2
20260507024506 3 0 0.0 3.2 0.00 0.00 0.00 92 1014.2
20260507024006 3 0 0.0 3.2 0.00 0.00 0.00 92 1014.2
20260507023506 3 0 0.0 3.2 0.00 0.00 0.00 92 1014.2
20260507023006 3 0 0.0 1.6 0.00 0.00 0.00 92 1014.2
20260507022506 3 0 0.0 1.6 0.00 0.00 0.00 92 1014.2
20260507022006 3 0 0.0 1.6 0.00 0.00 0.00 92 1014.2
20260507021006 3 0 0.0 3.2 0.00 0.00 0.00 92 1014.2
20260507020506 3 53 1.6 3.2 0.00 0.00 0.00 92 1014.2
20260507020006 3 52 1.6 3.2 0.00 0.00 0.00 92 1014.2
20260507015506 3 0 0.0 3.2 0.00 0.00 0.00 91 1014.2
20260507015006 3 0 0.0 3.2 0.00 0.00 0.00 91 1014.2
20260507014506 3 0 0.0 3.2 0.00 0.00 0.00 91 1014.1
20260507014006 3 52 1.6 3.2 0.00 0.00 0.00 91 1014.1
20260507013505 3 0 0.0 3.2 0.00 0.00 0.00 91 1014.1
20260507013005 3 0 0.0 3.2 0.00 0.00 0.00 91 1014.1
20260507012508 3 0 0.0 3.2 0.00 0.00 0.00 91 1014.1
20260507012006 4 53 1.6 3.2 0.00 0.00 0.00 91 1014.1
20260507011506 4 54 1.6 3.2 0.00 0.00 0.00 91 1014.1
20260507010506 4 0 0.0 4.8 0.00 0.00 0.00 90 1014.1
20260507004506 4 37 1.6 8.0 0.00 0.00 0.00 90 1014.2
20260507004006 4 38 1.6 8.0 0.00 0.00 0.00 90 1014.1
20260507003506 4 44 1.6 4.8 0.00 0.00 0.00 90 1014.1
20260507002506 4 33 3.2 8.0 0.00 0.00 0.00 90 1014.2
20260507001506 4 0 0.0 3.2 0.00 0.00 0.00 89 1014.2
20260507001006 4 0 0.0 3.2 0.00 0.00 0.00 89 1014.2
20260507000506 5 0 0.0 1.6 0.00 0.00 0.00 89 1014.2
20260507000006 5 0 0.0 1.6 0.00 0.00 0.00 88 1014.2
20260506235506 5 0 0.0 0.0 0.00 0.00 0.00 88 1014.2
20260506235007 5 0 0.0 0.0 0.00 0.00 0.00 88 1014.2
20260506234507 5 0 0.0 3.2 0.00 0.00 0.00 87 1014.2
20260506234006 5 0 0.0 3.2 0.00 0.00 0.00 87 1014.1
20260506233506 5 0 0.0 1.6 0.00 0.00 0.00 87 1014.1
20260506233014 5 0 0.0 1.6 0.00 0.00 0.00 87 1014.1
20260506232506 5 0 0.0 1.6 0.00 0.00 0.00 87 1014.1
20260506232006 5 0 0.0 1.6 0.00 0.00 0.00 86 1014.1
20260506231505 5 0 0.0 0.0 0.00 0.00 0.00 87 1014.1
20260506231005 6 0 0.0 0.0 0.00 0.00 0.00 86 1014.1
20260506230505 6 0 0.0 0.0 0.00 0.00 0.00 86 1014.1
20260506230007 6 0 0.0 1.6 0.00 0.00 0.00 85 1014.0
20260506225506 6 0 0.0 1.6 0.00 0.00 0.00 84 1014.0
20260506225006 6 0 0.0 0.0 0.00 0.00 0.00 84 1014.0
20260506224506 6 0 0.0 1.6 0.00 0.00 0.00 84 1014.0
20260506223506 6 0 0.0 3.2 0.00 0.00 0.00 84 1013.9
20260506223005 6 0 0.0 3.2 0.00 0.00 0.00 84 1013.9
20260506222505 6 0 0.0 3.2 0.00 0.00 0.00 82 1013.9
20260506222006 6 0 0.0 3.2 0.00 0.00 0.00 82 1013.9
20260506221506 6 0 0.0 1.6 0.00 0.00 0.00 81 1013.9
20260506221006 7 0 0.0 1.6 0.00 0.00 0.00 80 1013.9
20260506220006 7 0 0.0 1.6 0.00 0.00 0.00 79 1013.8
20260506215506 7 0 0.0 1.6 0.00 0.00 0.00 78 1013.8
20260506215006 7 0 0.0 0.0 0.00 0.00 0.00 76 1013.7
20260506214506 7 0 0.0 0.0 0.00 0.00 0.00 76 1013.8
20260506214006 7 0 0.0 0.0 0.00 0.00 0.00 75 1013.8
20260506213005 8 0 0.0 1.6 0.00 0.00 0.00 74 1013.7
20260506212506 8 0 0.0 3.2 0.00 0.00 0.00 73 1013.7
20260506212006 8 0 0.0 3.2 0.00 0.00 0.00 73 1013.7
20260506210506 9 25 1.6 3.2 0.00 0.00 0.00 71 1013.6
20260506210006 9 25 1.6 3.2 0.00 0.00 0.00 70 1013.6
20260506205506 10 32 1.6 3.2 0.00 0.00 0.00 70 1013.6
20260506205006 10 0 0.0 3.2 0.00 0.00 0.00 70 1013.5
20260506203505 10 0 0.0 3.2 0.00 0.00 0.00 69 1013.4
20260506203005 10 0 0.0 1.6 0.00 0.00 0.00 68 1013.3
20260506202505 11 0 0.0 1.6 0.00 0.00 0.00 67 1013.2
20260506202006 11 0 0.0 3.2 0.00 0.00 0.00 66 1013.2
20260506201506 11 78 1.6 4.8 0.00 0.00 0.00 66 1013.1
20260506201006 11 71 1.6 4.8 0.00 0.00 0.00 65 1013.0
20260506200506 11 57 1.6 4.8 0.00 0.00 0.00 64 1013.0
20260506200006 11 49 1.6 4.8 0.00 0.00 0.00 63 1012.9
20260506195506 12 0 0.0 3.2 0.00 0.00 0.00 62 1012.9
20260506195005 12 0 0.0 3.2 0.00 0.00 0.00 61 1012.9
20260506194505 12 51 1.6 4.8 0.00 0.00 0.00 61 1012.9
20260506193506 12 59 3.2 8.0 0.00 0.00 0.00 60 1012.7
20260506193006 12 60 1.6 4.8 0.00 0.00 0.00 60 1012.7
20260506192506 12 57 3.2 8.0 0.00 0.00 0.00 59 1012.7
20260506192006 12 54 3.2 8.0 0.00 0.00 0.00 58 1012.7
20260506191506 13 55 3.2 8.0 0.00 0.00 0.00 58 1012.7
20260506191006 13 57 3.2 9.7 0.00 0.00 0.00 56 1012.6
20260506190506 13 40 3.2 11.3 0.00 0.00 0.00 55 1012.6
20260506190006 13 20 3.2 11.3 0.00 0.00 0.00 55 1012.5
20260506185505 13 19 1.6 8.0 0.00 0.00 0.00 55 1012.5
20260506185006 13 15 3.2 8.0 0.00 0.00 0.00 55 1012.5
20260506184506 13 17 3.2 9.7 0.00 0.00 0.00 54 1012.5
20260506184006 13 32 3.2 9.7 0.00 0.00 0.00 53 1012.4
20260506183506 13 30 3.2 9.7 0.00 0.00 0.00 53 1012.4
20260506183006 13 22 3.2 9.7 0.00 0.00 0.00 53 1012.3
20260506182506 13 15 3.2 9.7 0.00 0.00 0.00 53 1012.3
20260506182006 13 11 3.2 9.7 0.00 0.00 0.00 53 1012.4
20260506181006 14 22 6.4 11.3 0.00 0.00 0.00 52 1012.4
20260506180505 14 27 6.4 9.7 0.00 0.00 0.00 51 1012.3
20260506180006 14 33 3.2 8.0 0.00 0.00 0.00 50 1012.2
20260506175506 14 32 3.2 8.0 0.00 0.00 0.00 51 1012.1
20260506175006 14 32 3.2 8.0 0.00 0.00 0.00 51 1012.0
20260506174506 14 49 3.2 8.0 0.00 0.00 0.00 50 1012.0
20260506174006 14 57 6.4 14.5 0.00 0.00 0.00 51 1012.0
20260506173005 14 46 3.2 12.9 0.00 0.00 0.00 50 1012.0
20260506172506 14 32 3.2 9.7 0.00 0.00 0.00 51 1012.0
20260506171506 14 16 6.4 17.7 0.00 0.00 0.00 51 1011.9
20260506171006 14 351 6.4 17.7 0.00 0.00 0.00 50 1011.9
20260506170505 15 327 6.4 16.1 0.00 0.00 0.00 50 1011.9
20260506165506 15 23 6.4 17.7 0.00 0.00 0.00 51 1012.0
20260506165006 15 34 6.4 17.7 0.00 0.00 0.00 52 1012.0
20260506164006 15 13 6.4 12.9 0.00 0.00 0.00 50 1012.0
20260506163006 15 26 3.2 8.0 0.00 0.00 0.00 50 1011.9
20260506162506 15 351 3.2 12.9 0.00 0.00 0.00 50 1012.0
20260506162006 15 354 6.4 12.9 0.00 0.00 0.00 49 1012.0
20260506161006 15 10 6.4 14.5 0.00 0.00 0.00 48 1012.0
20260506160505 15 13 6.4 14.5 0.00 0.00 0.00 49 1011.9
20260506160006 15 354 3.2 12.9 0.00 0.00 0.00 48 1011.9
20260506155506 15 357 6.4 11.3 0.00 0.00 0.00 46 1012.0
20260506155006 15 347 3.2 11.3 0.00 0.00 0.00 47 1012.0
20260506154505 15 347 6.4 12.9 0.00 0.00 0.00 48 1012.0
20260506153505 15 2 6.4 12.9 0.00 0.00 0.00 47 1012.0
20260506153006 15 20 6.4 12.9 0.00 0.00 0.00 49 1012.1
20260506152005 15 9 3.2 12.9 0.00 0.00 0.00 48 1012.1
20260506151006 15 28 8.0 14.5 0.00 0.00 0.00 48 1012.1
20260506150506 15 22 9.7 16.1 0.00 0.00 0.00 48 1012.2
20260506150005 15 14 9.7 16.1 0.00 0.00 0.00 47 1012.1
20260506145506 15 8 6.4 16.1 0.00 0.00 0.00 45 1012.2
20260506145006 15 14 6.4 9.7 0.00 0.00 0.00 47 1012.2
20260506144505 15 26 6.4 12.9 0.00 0.00 0.00 46 1012.3
20260506143506 16 354 8.0 17.7 0.00 0.00 0.00 46 1012.3
20260506142506 16 334 6.4 16.1 0.00 0.00 0.00 44 1012.3
20260506142006 16 351 8.0 14.5 0.00 0.00 0.00 44 1012.3
20260506141505 16 349 8.0 16.1 0.00 0.00 0.00 45 1012.3
20260506141006 16 340 6.4 16.1 0.00 0.00 0.00 46 1012.3
20260506140506 16 349 8.0 14.5 0.00 0.00 0.00 46 1012.3
20260506140006 16 359 9.7 22.5 0.00 0.00 0.00 44 1012.3